This is the latest recevied weather packets stored in our database for station/object PP5FMM-10. If no packets are shown the sender has not sent any weather packets the latest 10 day(s).
| Time | Temp. | Humidity | Pressure | Rain* | Wind** | Luminosity | Snow |
|---|---|---|---|---|---|---|---|
| 1777736278 | 25° C | 75% | 1013.5 hPa | - | - | - | - |
| 1777735382 | 25° C | 75% | 1012.5 hPa | - | - | - | - |
| 1777735378 | 25° C | 75% | 1012.5 hPa | - | - | - | - |
| 1777734482 | 25° C | 74% | 1012.5 hPa | - | - | - | - |
| 1777734478 | 25° C | 74% | 1012.5 hPa | - | - | - | - |
| 1777733582 | 25° C | 74% | 1012.4 hPa | - | - | - | - |
| 1777733578 | 25° C | 74% | 1012.4 hPa | - | - | - | - |
| 1777732682 | 25° C | 75% | 1011.7 hPa | - | - | - | - |
| 1777732677 | 25° C | 75% | 1011.7 hPa | - | - | - | - |
| 1777731781 | 24.44° C | 75% | 1011.6 hPa | - | - | - | - |
| 1777731777 | 24.44° C | 75% | 1011.6 hPa | - | - | - | - |
| 1777730881 | 23.89° C | 76% | 1012.3 hPa | - | - | - | - |
| 1777730877 | 23.89° C | 76% | 1012.3 hPa | - | - | - | - |
| 1777729981 | 23.33° C | 79% | 1012.7 hPa | - | - | - | - |
| 1777729977 | 23.33° C | 79% | 1012.7 hPa | - | - | - | - |
| 1777729081 | 23.33° C | 79% | 1013.2 hPa | - | - | - | - |
| 1777729077 | 23.33° C | 79% | 1013.2 hPa | - | - | - | - |
| 1777728181 | 23.33° C | 82% | 1013 hPa | - | - | - | - |
| 1777728177 | 23.33° C | 82% | 1013 hPa | - | - | - | - |
| 1777727281 | 23.89° C | 79% | 1013.4 hPa | - | - | - | - |
| 1777727277 | 23.89° C | 79% | 1013.4 hPa | - | - | - | - |
| 1777726380 | 24.44° C | 78% | 1013.4 hPa | - | - | - | - |
| 1777726376 | 24.44° C | 78% | 1013.4 hPa | - | - | - | - |
| 1777725480 | 23.33° C | 81% | 1013.2 hPa | - | - | - | - |
| 1777725476 | 23.33° C | 81% | 1013.2 hPa | - | - | - | - |
* Rain since midnight (hover to see other rain measurements)
** Current wind speed in m/s (hover to see current wind gust speed)